{"data":{"norad_id":59879,"epoch":"2026-05-25T03:10:36.546816Z","epoch_age_seconds":70453,"freshness":"FRESH","line1":"1 59879U 24098X   26145.13236744  .00000960  00000+0  44431-4 0  9993","line2":"2 59879  43.0031 195.7837 0002601 275.5338  84.5217 15.27565295113653","mean_motion":15.27565295,"eccentricity":0.0002601,"inclination_deg":43.0031,"raan_deg":195.7837,"arg_perigee_deg":275.5338,"mean_anomaly_deg":84.5217,"bstar":4.4431e-5,"rev_number":11365,"period_min":94.267656165886,"perigee_km":481.30852249656,"apogee_km":484.87773440939,"semimajor_km":6861.230128453,"source":"CELESTRAK","updated_at":"2026-05-25T13:38:19.094874Z"}}